Regional Weather Roundup
Issued by NWS San Angelo, TX

Home | Current Version | Previous Version | Text Only | Print | Product List | Glossary On
Versions: 1 2 3 4 5 6 7 8 9 10 11 12 13 14 15 16 17 18 19 20 21 22 23 24 25 26 27 28 29 30 31 32 33 34 35 36 37 38 39 40 41 42 43 44 45 46 47 48 49 50
000
ASUS44 KSJT 222210
RWRSJT
WEST CENTRAL TEXAS REGIONAL WEATHER ROUNDUP
NATIONAL WEATHER SERVICE SAN ANGELO TX
500 PM CDT MON MAY 22 2017

NOTE: "FAIR" INDICATES FEW OR NO CLOUDS BELOW 12,000 FEET WITH NO
SIGNIFICANT WEATHER AND/OR OBSTRUCTIONS TO VISIBILITY.

TXZ049-054-064>066-071>073-076>078-098-099-113-114-127-128-139-140-
154-155-168>170-222300
...LOCATIONS ACROSS WEST CENTRAL TEXAS...

CITY           SKY/WX    TMP DP  RH WIND       PRES   REMARKS
SAN ANGELO     CLOUDY    74  63  68 E9        29.94F
ABILENE        CLOUDY    75  61  61 SE9       29.94F
DYESS AFB      CLOUDY    76  63  62 SE9       29.92F
JUNCTION       CLOUDY    74  66  76 E7        29.94F
SWEETWATER     CLOUDY    75  62  65 E8        29.96F
BROWNWOOD      PTSUNNY   75  64  69 E10G16    29.94F HAZE
COLEMAN        MOCLDY    75  62  63 SE7       29.95F
SONORA         PTSUNNY   75  64  69 E6        29.98F
OZONA            N/A     73  63  68 SE6       29.97F
BRADY          NOT AVBL
$$

TEXAS PANHANDLE/OKLAHOMA PANHANDLE

CITY           SKY/WX    TMP DP  RH WIND       PRES   REMARKS
AMARILLO       CLOUDY    68  50  52 N12       30.03F
BORGER         MOSUNNY   67  54  63 N5        30.02F
CANADIAN       DRIZZLE   59  58  95 CALM      30.02F
DALHART        PTSUNNY   68  48  48 NE13      30.05F
DUMAS          PTCLDY    66  51  57 N12G21    30.04F
GUYMON         NOT AVBL
HEREFORD       CLOUDY    70  53  54 N12G17    30.03F
PAMPA          CLOUDY    63  56  79 NE7       30.03F
PERRYTON       CLOUDY    63  56  78 N13       30.02F
$$

SOUTHERN PANHANDLE/SOUTH PLAINS/ROLLING PLAINS

CITY           SKY/WX    TMP DP  RH WIND       PRES   REMARKS
LUBBOCK        PTSUNNY   79  54  41 VRB5      29.98F
SNYDER         CLOUDY    73  62  67 SE6       29.96F
CHILDRESS      CLOUDY    73  57  57 SE9G18    29.96F
SEMINOLE       CLOUDY    76  55  47 NE7       29.97F
$$

PERMIAN BASIN

CITY           SKY/WX    TMP DP  RH WIND       PRES   REMARKS
MIDLAND        SUNNY     76  56  49 MISG      29.94F
ODESSA         SUNNY     77  56  48 VRB5      29.94F
WINK           SUNNY     81  55  40 SE6       29.89F
$$

FAR WEST/SOUTHWEST MOUNTAINS/TRANS PECOS

CITY           SKY/WX    TMP DP  RH WIND       PRES   REMARKS
ALPINE         CLEAR     83  41  22 E9G16     30.02F
DRYDEN           N/A     74  65  73 E14       29.92F
EL PASO        MOSUNNY   92  27   9 SW12G26   29.92F
FORT STOCKTON  SUNNY     85  60  42 MISG      29.91F
GUADALUPE PASS CLOUDY    82  40  22 S13       30.03F
MARFA          PTSUNNY   86  41  20 SW16G23   29.99F
PECOS          CLEAR     82  55  39 E8        29.88F
$$

DALLAS/FORT WORTH METROPLEX

CITY           SKY/WX    TMP DP  RH WIND       PRES   REMARKS
DFW AIRPORT    CLOUDY    77  61  57 SE8       29.92F
FTW MEACHAM    CLOUDY    79  60  52 NE7       29.92F
DAL-EXECUTIVE  CLOUDY    75  62  64 E7        29.93F
GRAND PRAIRIE  MOSUNNY   75  61  60 E7        29.95F
ADDISON        PTSUNNY   77  59  53 E6        29.95F
MESQUITE       PTCLDY    77  61  57 SE9       29.95F
LANCASTER      PTCLDY    77  60  55 E9        29.95F
$$

NORTH CENTRAL TEXAS

CITY           SKY/WX    TMP DP  RH WIND       PRES   REMARKS
SHRMAN/DENISON CLOUDY    75  59  57 CALM      29.97F
GAINESVILLE    CLOUDY    75  58  54 CALM      29.97F
BRIDGEPORT     CLOUDY    76  58  54 SE5       29.96F
DENTON         PTSUNNY   78  60  53 E5        29.94F
WAXAHACHIE     PTCLDY    76  64  65 E5        29.95F
GRANBURY       CLOUDY    78  60  53 E6        29.95F
$$

WESTERN NORTH TEXAS

CITY           SKY/WX    TMP DP  RH WIND       PRES   REMARKS
WICHITA FALLS  CLOUDY    75  58  55 S3        29.94F
VERNON         CLOUDY    75  55  50 SE7       29.96F
BRECKENRIDGE   CLOUDY    77  59  53 SE7       29.94F HAZE
COMANCHE       PTSUNNY   74  64  69 SE8       29.96F
$$

CENTRAL AND SOUTH CENTRAL TEXAS

CITY           SKY/WX    TMP DP  RH WIND       PRES   REMARKS
AUSTIN/BERGSTM CLOUDY    76  66  71 NE10      29.91F
WACO           CLOUDY    76  63  64 E6        29.93F
HILLSBORO      PTCLDY    78  64  61 E8        29.94F
TEMPLE         CLOUDY    75  64  68 E7        29.94F
KILLEEN-GRAY   CLOUDY    72  63  73 E10       29.93F
FORT HOOD      CLOUDY    71  63  74 E8        29.91F
GEORGETOWN     CLOUDY    73  64  73 N7        29.93F
LAGO VISTA     CLOUDY    71  66  83 E5        29.96S
SAN MARCOS     CLOUDY    73  66  78 NE9       29.92F
NEW BRAUNFELS  CLOUDY    75  67  76 NE10      29.90F
RANDOLPH AFB   CLOUDY    74  70  87 NE10      29.90F
SAN ANTONIO    CLOUDY    75  66  73 E8        29.91F
STINSON        CLOUDY    77  66  68 E10       29.88F
PLEASANTON     NOT AVBL
LA GRANGE      CLOUDY    77  69  75 NE6       29.88F
GIDDINGS       CLOUDY    74  65  74 NE6       29.92F
$$

EAST TEXAS

CITY           SKY/WX    TMP DP  RH WIND       PRES   REMARKS
PARIS          CLOUDY    73  57  56 E7        29.97S
CLARKSVILLE    NOT AVBL
TYLER          CLOUDY    66  61  84 E9        29.96F
LONGVIEW       CLOUDY    63  62  97 NE7       29.96F FOG
PALESTINE      CLOUDY    67  64  91 NE8       29.96F
NACOGDOCHES    CLOUDY    66  63  88 E6        29.92F
$$

TEXAS HILL COUNTRY AND EDWARDS PLATEAU

CITY           SKY/WX    TMP DP  RH WIND       PRES   REMARKS
LLANO          CLOUDY    75  66  73 E9        29.97F
HORSESHOE BAY  NOT AVBL
KERRVILLE      CLOUDY    76  68  76 E7        29.94F
FREDERICKSBRG  CLOUDY    71  63  74 E6        29.95F
ROCKSPRINGS    CLOUDY    73  66  78 SE5       29.97F
HONDO          CLOUDY    80  68  66 E7        29.90F
UVALDE         CLOUDY    79  68  69 E5        29.91S
DEL RIO        CLOUDY    74  68  81 SW3       29.90F
$$

SOUTHEAST TEXAS

CITY           SKY/WX    TMP DP  RH WIND       PRES   REMARKS
COLLEGE STN    CLOUDY    72  66  81 NE9       29.91F
CALDWELL       NOT AVBL
CROCKETT       CLOUDY    68  64  88 N7        29.95F
BRENHAM        CLOUDY    75  67  75 N6        29.92S
HUNTSVILLE     CLOUDY    68  64  87 E6        29.92F
CONROE         CLOUDY    71  66  84 N6        29.90F
HOUSTON BUSH   LGT RAIN  71  67  87 N6        29.89F FOG
HOUSTON HOBBY  PTSUNNY   76  69  79 N13       29.87F
PERLAND        CLOUDY    77  70  79 N8        29.88F
WHARTON        CLOUDY    78  69  74 N9        29.88S
$$

THE UPPER TEXAS COAST

CITY           SKY/WX    TMP DP  RH WIND       PRES   REMARKS
ORANGE         CLOUDY    78  74  87 CALM      29.86F
PORT ARTHUR    RAIN      71  68  90 NW14      29.87S FOG
GALVESTON      CLOUDY    78  72  81 N17       29.88S
ANGLETON       PTSUNNY   83  73  72 SW8       29.84F
BAY CITY       CLOUDY    79  76  90 SW6       29.86S
$$

TEXAS COASTAL BEND, RIO GRANDE PLAINS DEEP SOUTH TEXAS

CITY           SKY/WX    TMP DP  RH WIND       PRES   REMARKS
VICTORIA       PTSUNNY   83  73  72 N13       29.85F
BEEVILLE       CLOUDY    87  72  62 NE7       29.85S
ROCKPORT       MOSUNNY   83  72  69 CALM      29.83F
PORT ARANSAS   CLOUDY    79  73  81 CALM      29.84F
PORT LAVACA    CLEAR     84  75  75 CALM      29.85F
CORPUS CHRISTI CLOUDY    83  72  69 NE6       29.83F
KINGSVILLE NAS NOT AVBL
COTULLA        CLOUDY    84  68  58 E8        29.86F
LAREDO         CLOUDY    85  71  63 VRB5      29.85F
BROWNSVILLE    SUNNY     94  74  52 SE16      29.78F
PORT ISABEL    SUNNY     92  75  57 SE22      29.77F
HEBBRONVILLE   CLOUDY    86  67  51 E7        29.85F
MCALLEN        PTSUNNY   92  75  57 N13       29.78F
WESLACO        MOSUNNY   92  75  56 NE10G18   29.77F
FALFURRIAS     MOCLDY    87  71  59 NE9       29.82F
EDINBURG       MOCLDY    92  72  52 N9G17     29.79F
$$




USA.gov is the U.S. government's official web portal to all federal, state and local government web resources and services.